iso_date,epoch_date,Year,Hour,Min,DOY,POS_DOY,Lat,Lon,BP,Ts,Ta,has_bp,has_ts,has_ta,BuoyID,Buoy_Type,Buoy_Owner,Logistics,Hemisphere
2020-08-26T15:00:00Z,1598454000,2020,15,0,239.625,239.625,72.80836,-156.1609,1018.5,-1.17,-999.0,yes,yes,no,300534061804420,unknown,unknown,unknown,North
2020-08-26T16:00:02Z,1598457603,2020,16,0,239.6667,239.6667,72.81165,-156.1823,1018.7,-0.59,-999.0,yes,yes,no,300534061804420,unknown,unknown,unknown,North
2020-08-26T16:59:57Z,1598461197,2020,17,0,239.7083,239.7083,72.81445,-156.1981,1019.0,-0.31,-999.0,yes,yes,no,300534061804420,unknown,unknown,unknown,North
2020-08-26T18:00:00Z,1598464800,2020,18,0,239.75,239.75,72.81705,-156.2157,1019.3,0.01,-999.0,yes,yes,no,300534061804420,unknown,unknown,unknown,North
2020-08-26T19:00:02Z,1598468403,2020,19,0,239.7917,239.7917,72.81915,-156.238,1019.5,0.15,-999.0,yes,yes,no,300534061804420,unknown,unknown,unknown,North
2020-08-26T19:59:57Z,1598471997,2020,20,0,239.8333,239.8333,72.82152,-156.2727,1019.9,0.99,-999.0,yes,yes,no,300534061804420,unknown,unknown,unknown,North
2020-08-26T21:00:00Z,1598475600,2020,21,0,239.875,239.875,72.82468,-156.3146,1020.1,1.75,-999.0,yes,yes,no,300534061804420,unknown,unknown,unknown,North
2020-08-26T22:00:02Z,1598479203,2020,22,0,239.9167,239.9167,72.82943,-156.3562,1020.3,0.92,-999.0,yes,yes,no,300534061804420,unknown,unknown,unknown,North
2020-08-26T22:59:57Z,1598482797,2020,23,0,239.9583,239.9583,72.83244,-156.387,1020.3,0.4,-999.0,yes,yes,no,300534061804420,unknown,unknown,unknown,North
2020-08-27T00:00:00Z,1598486400,2020,0,0,240.0,240.0,72.83739,-156.4193,1020.5,0.75,-999.0,yes,yes,no,300534061804420,unknown,unknown,unknown,North
2020-08-27T01:00:02Z,1598490003,2020,1,0,240.0417,240.0417,72.84322,-156.4467,1020.7,0.55,-999.0,yes,yes,no,300534061804420,unknown,unknown,unknown,North
2020-08-27T01:59:57Z,1598493597,2020,2,0,240.0833,240.0833,72.84841,-156.4754,1020.7,0.85,-999.0,yes,yes,no,300534061804420,unknown,unknown,unknown,North
2020-08-27T03:00:00Z,1598497200,2020,3,0,240.125,240.125,72.8531,-156.4984,1020.9,0.51,-999.0,yes,yes,no,300534061804420,unknown,unknown,unknown,North
2020-08-27T04:00:02Z,1598500803,2020,4,0,240.1667,240.1667,72.85808,-156.5192,1021.0,0.13,-999.0,yes,yes,no,300534061804420,unknown,unknown,unknown,North
2020-08-27T04:59:57Z,1598504397,2020,5,0,240.2083,240.2083,72.86291,-156.5363,1021.4,0.09,-999.0,yes,yes,no,300534061804420,unknown,unknown,unknown,North
2020-08-27T06:00:00Z,1598508000,2020,6,0,240.25,240.25,72.86656,-156.5598,1021.6,0.07,-999.0,yes,yes,no,300534061804420,unknown,unknown,unknown,North
2020-08-27T07:00:02Z,1598511603,2020,7,0,240.2917,240.2917,72.86985,-156.5875,1022.0,0.03,-999.0,yes,yes,no,300534061804420,unknown,unknown,unknown,North
2020-08-27T07:59:57Z,1598515197,2020,8,0,240.3333,240.3333,72.87293,-156.6198,1022.2,-0.08,-999.0,yes,yes,no,300534061804420,unknown,unknown,unknown,North
2020-08-27T09:00:00Z,1598518800,2020,9,0,240.375,240.375,72.87721,-156.6539,1022.3,-0.32,-999.0,yes,yes,no,300534061804420,unknown,unknown,unknown,North
2020-08-27T10:00:02Z,1598522403,2020,10,0,240.4167,240.4167,72.88132,-156.6879,1022.7,-0.65,-999.0,yes,yes,no,300534061804420,unknown,unknown,unknown,North
2020-08-27T10:59:57Z,1598525997,2020,11,0,240.4583,240.4583,72.88579,-156.7194,1022.6,-0.52,-999.0,yes,yes,no,300534061804420,unknown,unknown,unknown,North
2020-08-27T12:00:00Z,1598529600,2020,12,0,240.5,240.5,72.89127,-156.7622,1022.7,-0.57,-999.0,yes,yes,no,300534061804420,unknown,unknown,unknown,North
2020-08-27T13:00:02Z,1598533203,2020,13,0,240.5417,240.5417,72.89809,-156.8125,1022.6,-0.55,-999.0,yes,yes,no,300534061804420,unknown,unknown,unknown,North
2020-08-27T13:59:57Z,1598536797,2020,14,0,240.5833,240.5833,72.90543,-156.8599,1022.9,-0.79,-999.0,yes,yes,no,300534061804420,unknown,unknown,unknown,North
2020-08-27T15:00:00Z,1598540400,2020,15,0,240.625,240.625,72.91379,-156.9066,1023.0,-0.84,-999.0,yes,yes,no,300534061804420,unknown,unknown,unknown,North
2020-08-27T16:00:02Z,1598544003,2020,16,0,240.6667,240.6667,72.92249,-156.9482,1023.2,-0.8,-999.0,yes,yes,no,300534061804420,unknown,unknown,unknown,North
2020-08-27T16:59:57Z,1598547597,2020,17,0,240.7083,240.7083,72.93176,-156.9915,1023.4,-0.64,-999.0,yes,yes,no,300534061804420,unknown,unknown,unknown,North
2020-08-27T18:00:00Z,1598551200,2020,18,0,240.75,240.75,72.94305,-157.0328,1023.6,-0.89,-999.0,yes,yes,no,300534061804420,unknown,unknown,unknown,North
2020-08-27T19:00:02Z,1598554803,2020,19,0,240.7917,240.7917,72.95385,-157.0687,1023.7,-0.41,-999.0,yes,yes,no,300534061804420,unknown,unknown,unknown,North
2020-08-27T19:59:57Z,1598558397,2020,20,0,240.8333,240.8333,72.96483,-157.0961,1023.7,-0.07,-999.0,yes,yes,no,300534061804420,unknown,unknown,unknown,North
2020-08-27T21:00:00Z,1598562000,2020,21,0,240.875,240.875,72.97433,-157.1244,1023.8,0.44,-999.0,yes,yes,no,300534061804420,unknown,unknown,unknown,North
2020-08-27T22:00:02Z,1598565603,2020,22,0,240.9167,240.9167,72.98414,-157.154,1023.9,1.05,-999.0,yes,yes,no,300534061804420,unknown,unknown,unknown,North
2020-08-27T22:59:57Z,1598569197,2020,23,0,240.9583,240.9583,72.99417,-157.1891,1023.7,1.47,-999.0,yes,yes,no,300534061804420,unknown,unknown,unknown,North
2020-08-28T00:00:00Z,1598572800,2020,0,0,241.0,241.0,73.00391,-157.2318,1023.9,1.4,-999.0,yes,yes,no,300534061804420,unknown,unknown,unknown,North
2020-08-28T01:00:02Z,1598576403,2020,1,0,241.0417,241.0417,73.01272,-157.2752,1024.0,3.16,-999.0,yes,yes,no,300534061804420,unknown,unknown,unknown,North
2020-08-28T01:59:57Z,1598579997,2020,2,0,241.0833,241.0833,73.0199,-157.314,1024.0,2.13,-999.0,yes,yes,no,300534061804420,unknown,unknown,unknown,North
2020-08-28T03:00:00Z,1598583600,2020,3,0,241.125,241.125,73.02356,-157.3482,1024.2,1.97,-999.0,yes,yes,no,300534061804420,unknown,unknown,unknown,North
2020-08-28T04:00:02Z,1598587203,2020,4,0,241.1667,241.1667,73.02637,-157.3819,1024.2,2.26,-999.0,yes,yes,no,300534061804420,unknown,unknown,unknown,North
2020-08-28T04:59:57Z,1598590797,2020,5,0,241.2083,241.2083,73.02894,-157.417,1024.0,2.4,-999.0,yes,yes,no,300534061804420,unknown,unknown,unknown,North
2020-08-28T06:00:00Z,1598594400,2020,6,0,241.25,241.25,73.03191,-157.4559,1024.3,2.45,-999.0,yes,yes,no,300534061804420,unknown,unknown,unknown,North
2020-08-28T07:00:02Z,1598598003,2020,7,0,241.2917,241.2917,73.03512,-157.4979,1024.2,2.77,-999.0,yes,yes,no,300534061804420,unknown,unknown,unknown,North
2020-08-28T07:59:57Z,1598601597,2020,8,0,241.3333,241.3333,73.04013,-157.541,1024.5,2.92,-999.0,yes,yes,no,300534061804420,unknown,unknown,unknown,North
2020-08-28T09:00:00Z,1598605200,2020,9,0,241.375,241.375,73.04794,-157.588,1024.7,3.02,-999.0,yes,yes,no,300534061804420,unknown,unknown,unknown,North
2020-08-28T10:00:02Z,1598608803,2020,10,0,241.4167,241.4167,73.05689,-157.6352,1024.3,2.59,-999.0,yes,yes,no,300534061804420,unknown,unknown,unknown,North
2020-08-28T10:59:57Z,1598612397,2020,11,0,241.4583,241.4583,73.06606,-157.6808,1024.3,2.35,-999.0,yes,yes,no,300534061804420,unknown,unknown,unknown,North
2020-08-28T12:00:00Z,1598616000,2020,12,0,241.5,241.5,73.07563,-157.7268,1024.5,1.91,-999.0,yes,yes,no,300534061804420,unknown,unknown,unknown,North
2020-08-28T13:00:02Z,1598619603,2020,13,0,241.5417,241.5417,73.08614,-157.7768,1024.7,1.25,-999.0,yes,yes,no,300534061804420,unknown,unknown,unknown,North
2020-08-28T13:59:57Z,1598623197,2020,14,0,241.5833,241.5833,73.09624,-157.8242,1024.6,1.28,-999.0,yes,yes,no,300534061804420,unknown,unknown,unknown,North
2020-08-28T15:00:00Z,1598626800,2020,15,0,241.625,241.625,73.1059,-157.8729,1024.6,1.25,-999.0,yes,yes,no,300534061804420,unknown,unknown,unknown,North
2020-08-28T16:00:02Z,1598630403,2020,16,0,241.6667,241.6667,73.11526,-157.9241,1024.6,1.74,-999.0,yes,yes,no,300534061804420,unknown,unknown,unknown,North
2020-08-28T16:59:57Z,1598633997,2020,17,0,241.7083,241.7083,73.12488,-157.9782,1024.6,2.45,-999.0,yes,yes,no,300534061804420,unknown,unknown,unknown,North
2020-08-28T18:00:00Z,1598637600,2020,18,0,241.75,241.75,73.13799,-158.0418,1024.8,2.81,-999.0,yes,yes,no,300534061804420,unknown,unknown,unknown,North
2020-08-28T19:00:02Z,1598641203,2020,19,0,241.7917,241.7917,73.15369,-158.1043,1024.7,3.39,-999.0,yes,yes,no,300534061804420,unknown,unknown,unknown,North
2020-08-28T19:59:57Z,1598644797,2020,20,0,241.8333,241.8333,73.17092,-158.1703,1024.9,3.55,-999.0,yes,yes,no,300534061804420,unknown,unknown,unknown,North
2020-08-28T21:00:00Z,1598648400,2020,21,0,241.875,241.875,73.18995,-158.2401,1024.8,3.85,-999.0,yes,yes,no,300534061804420,unknown,unknown,unknown,North
2020-08-28T22:00:02Z,1598652003,2020,22,0,241.9167,241.9167,73.21049,-158.3079,1025.2,3.99,-999.0,yes,yes,no,300534061804420,unknown,unknown,unknown,North
2020-08-29T00:00:00Z,1598659200,2020,0,0,242.0,242.0,73.25177,-158.459,1025.0,4.11,-999.0,yes,yes,no,300534061804420,unknown,unknown,unknown,North
2020-08-29T01:00:02Z,1598662803,2020,1,0,242.0417,242.0417,73.27059,-158.5452,1025.3,4.06,-999.0,yes,yes,no,300534061804420,unknown,unknown,unknown,North
2020-08-29T01:59:57Z,1598666397,2020,2,0,242.0833,242.0833,73.28845,-158.6387,1025.4,4.08,-999.0,yes,yes,no,300534061804420,unknown,unknown,unknown,North
2020-08-29T03:00:00Z,1598670000,2020,3,0,242.125,242.125,73.30641,-158.7451,1025.4,4.19,-999.0,yes,yes,no,300534061804420,unknown,unknown,unknown,North
2020-08-29T04:00:02Z,1598673603,2020,4,0,242.1667,242.1667,73.32364,-158.8642,1025.5,4.24,-999.0,yes,yes,no,300534061804420,unknown,unknown,unknown,North
2020-08-29T04:59:57Z,1598677197,2020,5,0,242.2083,242.2083,73.33918,-158.9936,1025.5,4.18,-999.0,yes,yes,no,300534061804420,unknown,unknown,unknown,North
2020-08-29T06:00:00Z,1598680800,2020,6,0,242.25,242.25,73.35223,-159.1236,1025.6,4.12,-999.0,yes,yes,no,300534061804420,unknown,unknown,unknown,North
2020-08-29T07:00:02Z,1598684403,2020,7,0,242.2917,242.2917,73.3641,-159.2502,1025.9,4.06,-999.0,yes,yes,no,300534061804420,unknown,unknown,unknown,North
2020-08-29T07:59:57Z,1598687997,2020,8,0,242.3333,242.3333,73.37469,-159.3789,1025.9,3.67,-999.0,yes,yes,no,300534061804420,unknown,unknown,unknown,North
2020-08-29T09:00:00Z,1598691600,2020,9,0,242.375,242.375,73.3838,-159.4933,1026.0,3.65,-999.0,yes,yes,no,300534061804420,unknown,unknown,unknown,North
2020-08-29T10:00:02Z,1598695203,2020,10,0,242.4167,242.4167,73.39238,-159.5891,1025.9,3.44,-999.0,yes,yes,no,300534061804420,unknown,unknown,unknown,North
2020-08-29T10:59:57Z,1598698797,2020,11,0,242.4583,242.4583,73.39953,-159.6611,1025.8,3.46,-999.0,yes,yes,no,300534061804420,unknown,unknown,unknown,North
2020-08-29T12:00:00Z,1598702400,2020,12,0,242.5,242.5,73.40718,-159.7329,1025.8,3.52,-999.0,yes,yes,no,300534061804420,unknown,unknown,unknown,North
2020-08-29T13:00:02Z,1598706003,2020,13,0,242.5417,242.5417,73.41392,-159.7998,1025.3,3.57,-999.0,yes,yes,no,300534061804420,unknown,unknown,unknown,North
2020-08-29T13:59:57Z,1598709597,2020,14,0,242.5833,242.5833,73.4154,-159.8527,1025.3,3.66,-999.0,yes,yes,no,300534061804420,unknown,unknown,unknown,North
2020-08-29T15:00:00Z,1598713200,2020,15,0,242.625,242.625,73.415,-159.8985,1025.2,3.63,-999.0,yes,yes,no,300534061804420,unknown,unknown,unknown,North
2020-08-29T16:00:02Z,1598716803,2020,16,0,242.6667,242.6667,73.41125,-159.9397,1024.9,3.88,-999.0,yes,yes,no,300534061804420,unknown,unknown,unknown,North
2020-08-29T16:59:57Z,1598720397,2020,17,0,242.7083,242.7083,73.40598,-159.9839,1024.6,3.93,-999.0,yes,yes,no,300534061804420,unknown,unknown,unknown,North
2020-08-29T18:00:00Z,1598724000,2020,18,0,242.75,242.75,73.40002,-160.0284,1024.4,3.92,-999.0,yes,yes,no,300534061804420,unknown,unknown,unknown,North
2020-08-29T19:00:02Z,1598727603,2020,19,0,242.7917,242.7917,73.39387,-160.0719,1024.2,3.56,-999.0,yes,yes,no,300534061804420,unknown,unknown,unknown,North
2020-08-29T19:59:57Z,1598731197,2020,20,0,242.8333,242.8333,73.38779,-160.1139,1023.9,3.61,-999.0,yes,yes,no,300534061804420,unknown,unknown,unknown,North
2020-08-29T21:00:00Z,1598734800,2020,21,0,242.875,242.875,73.38342,-160.1539,1023.3,3.61,-999.0,yes,yes,no,300534061804420,unknown,unknown,unknown,North
2020-08-29T22:00:02Z,1598738403,2020,22,0,242.9167,242.9167,73.37881,-160.1933,1023.5,3.63,-999.0,yes,yes,no,300534061804420,unknown,unknown,unknown,North
2020-08-29T22:59:57Z,1598741997,2020,23,0,242.9583,242.9583,73.37434,-160.224,1023.2,3.56,-999.0,yes,yes,no,300534061804420,unknown,unknown,unknown,North
2020-08-30T00:00:00Z,1598745600,2020,0,0,243.0,243.0,73.36932,-160.2466,1022.9,3.75,-999.0,yes,yes,no,300534061804420,unknown,unknown,unknown,North
2020-08-30T01:00:02Z,1598749203,2020,1,0,243.0417,243.0417,73.36362,-160.2697,1022.3,3.71,-999.0,yes,yes,no,300534061804420,unknown,unknown,unknown,North
2020-08-30T03:00:00Z,1598756400,2020,3,0,243.125,243.125,73.35201,-160.3112,1021.6,3.72,-999.0,yes,yes,no,300534061804420,unknown,unknown,unknown,North
2020-08-30T04:00:02Z,1598760003,2020,4,0,243.1667,243.1667,73.34588,-160.3339,1021.3,3.77,-999.0,yes,yes,no,300534061804420,unknown,unknown,unknown,North
2020-08-30T04:59:57Z,1598763597,2020,5,0,243.2083,243.2083,73.33942,-160.3586,1020.7,3.86,-999.0,yes,yes,no,300534061804420,unknown,unknown,unknown,North
2020-08-30T06:00:00Z,1598767200,2020,6,0,243.25,243.25,73.33335,-160.3845,1020.3,3.91,-999.0,yes,yes,no,300534061804420,unknown,unknown,unknown,North
2020-08-30T07:00:02Z,1598770803,2020,7,0,243.2917,243.2917,73.32778,-160.4105,1019.9,3.94,-999.0,yes,yes,no,300534061804420,unknown,unknown,unknown,North
2020-08-30T07:59:57Z,1598774397,2020,8,0,243.3333,243.3333,73.32318,-160.4379,1019.6,3.7,-999.0,yes,yes,no,300534061804420,unknown,unknown,unknown,North
2020-08-30T09:00:00Z,1598778000,2020,9,0,243.375,243.375,73.31809,-160.4642,1019.4,3.69,-999.0,yes,yes,no,300534061804420,unknown,unknown,unknown,North
2020-08-30T10:00:02Z,1598781603,2020,10,0,243.4167,243.4167,73.31349,-160.4871,1019.1,3.72,-999.0,yes,yes,no,300534061804420,unknown,unknown,unknown,North
2020-08-30T10:59:57Z,1598785197,2020,11,0,243.4583,243.4583,73.30952,-160.5056,1018.5,3.77,-999.0,yes,yes,no,300534061804420,unknown,unknown,unknown,North
2020-08-30T12:00:00Z,1598788800,2020,12,0,243.5,243.5,73.30543,-160.5164,1018.1,3.78,-999.0,yes,yes,no,300534061804420,unknown,unknown,unknown,North
2020-08-30T13:00:02Z,1598792403,2020,13,0,243.5417,243.5417,73.30083,-160.522,1017.6,3.76,-999.0,yes,yes,no,300534061804420,unknown,unknown,unknown,North
2020-08-30T13:59:57Z,1598795997,2020,14,0,243.5833,243.5833,73.2956,-160.5184,1016.9,3.72,-999.0,yes,yes,no,300534061804420,unknown,unknown,unknown,North
2020-08-30T15:00:00Z,1598799600,2020,15,0,243.625,243.625,73.29037,-160.5186,1016.6,3.71,-999.0,yes,yes,no,300534061804420,unknown,unknown,unknown,North
2020-08-30T16:00:02Z,1598803203,2020,16,0,243.6667,243.6667,73.28568,-160.5219,1016.1,3.71,-999.0,yes,yes,no,300534061804420,unknown,unknown,unknown,North
2020-08-30T16:59:57Z,1598806797,2020,17,0,243.7083,243.7083,73.28112,-160.5321,1015.4,3.7,-999.0,yes,yes,no,300534061804420,unknown,unknown,unknown,North
2020-08-30T18:00:00Z,1598810400,2020,18,0,243.75,243.75,73.27738,-160.5497,1015.0,3.68,-999.0,yes,yes,no,300534061804420,unknown,unknown,unknown,North
2020-08-30T19:00:02Z,1598814003,2020,19,0,243.7917,243.7917,73.27532,-160.5723,1014.7,3.6,-999.0,yes,yes,no,300534061804420,unknown,unknown,unknown,North
2020-08-30T19:59:57Z,1598817597,2020,20,0,243.8333,243.8333,73.27471,-160.5986,1014.4,3.64,-999.0,yes,yes,no,300534061804420,unknown,unknown,unknown,North
2020-08-30T21:00:00Z,1598821200,2020,21,0,243.875,243.875,73.27525,-160.6254,1014.0,3.72,-999.0,yes,yes,no,300534061804420,unknown,unknown,unknown,North
2020-08-30T22:00:02Z,1598824803,2020,22,0,243.9167,243.9167,73.2759,-160.6541,1013.7,3.78,-999.0,yes,yes,no,300534061804420,unknown,unknown,unknown,North
2020-08-30T22:59:57Z,1598828397,2020,23,0,243.9583,243.9583,73.27583,-160.6765,1013.0,3.76,-999.0,yes,yes,no,300534061804420,unknown,unknown,unknown,North
2020-08-31T00:00:00Z,1598832000,2020,0,0,244.0,244.0,73.2748,-160.6897,1012.6,3.75,-999.0,yes,yes,no,300534061804420,unknown,unknown,unknown,North
2020-08-31T01:00:02Z,1598835603,2020,1,0,244.0417,244.0417,73.27182,-160.7024,1011.9,3.74,-999.0,yes,yes,no,300534061804420,unknown,unknown,unknown,North
2020-08-31T03:00:00Z,1598842800,2020,3,0,244.125,244.125,73.26386,-160.732,1010.9,3.85,-999.0,yes,yes,no,300534061804420,unknown,unknown,unknown,North
2020-08-31T04:00:02Z,1598846403,2020,4,0,244.1667,244.1667,73.25916,-160.752,1010.3,3.86,-999.0,yes,yes,no,300534061804420,unknown,unknown,unknown,North
2020-08-31T04:59:57Z,1598849997,2020,5,0,244.2083,244.2083,73.25533,-160.7803,1010.1,3.74,-999.0,yes,yes,no,300534061804420,unknown,unknown,unknown,North
2020-08-31T06:00:00Z,1598853600,2020,6,0,244.25,244.25,73.25223,-160.8136,1009.2,3.75,-999.0,yes,yes,no,300534061804420,unknown,unknown,unknown,North
2020-08-31T07:00:02Z,1598857203,2020,7,0,244.2917,244.2917,73.25034,-160.8483,1009.3,3.74,-999.0,yes,yes,no,300534061804420,unknown,unknown,unknown,North
2020-08-31T07:59:57Z,1598860797,2020,8,0,244.3333,244.3333,73.24985,-160.8818,1009.0,3.73,-999.0,yes,yes,no,300534061804420,unknown,unknown,unknown,North
2020-08-31T09:00:00Z,1598864400,2020,9,0,244.375,244.375,73.25046,-160.9127,1008.8,3.81,-999.0,yes,yes,no,300534061804420,unknown,unknown,unknown,North
2020-08-31T10:00:02Z,1598868003,2020,10,0,244.4167,244.4167,73.2504,-160.9379,1008.6,3.83,-999.0,yes,yes,no,300534061804420,unknown,unknown,unknown,North
2020-08-31T10:59:57Z,1598871597,2020,11,0,244.4583,244.4583,73.24966,-160.9611,1008.6,3.72,-999.0,yes,yes,no,300534061804420,unknown,unknown,unknown,North
2020-08-31T12:00:00Z,1598875200,2020,12,0,244.5,244.5,73.24788,-160.9836,1008.0,3.72,-999.0,yes,yes,no,300534061804420,unknown,unknown,unknown,North
2020-08-31T13:00:02Z,1598878803,2020,13,0,244.5417,244.5417,73.24461,-161.0057,1007.7,3.75,-999.0,yes,yes,no,300534061804420,unknown,unknown,unknown,North
2020-08-31T13:59:57Z,1598882397,2020,14,0,244.5833,244.5833,73.24104,-161.0273,1007.6,3.7,-999.0,yes,yes,no,300534061804420,unknown,unknown,unknown,North
2020-08-31T15:00:00Z,1598886000,2020,15,0,244.625,244.625,73.23806,-161.0525,1007.5,3.69,-999.0,yes,yes,no,300534061804420,unknown,unknown,unknown,North
2020-08-31T16:00:02Z,1598889603,2020,16,0,244.6667,244.6667,73.23589,-161.0806,1007.1,3.7,-999.0,yes,yes,no,300534061804420,unknown,unknown,unknown,North
2020-08-31T16:59:57Z,1598893197,2020,17,0,244.7083,244.7083,73.23329,-161.1086,1007.6,3.7,-999.0,yes,yes,no,300534061804420,unknown,unknown,unknown,North
2020-08-31T18:00:00Z,1598896800,2020,18,0,244.75,244.75,73.23172,-161.1367,1008.0,3.68,-999.0,yes,yes,no,300534061804420,unknown,unknown,unknown,North
2020-08-31T19:00:02Z,1598900403,2020,19,0,244.7917,244.7917,73.23043,-161.1668,1008.2,3.65,-999.0,yes,yes,no,300534061804420,unknown,unknown,unknown,North
2020-08-31T19:59:57Z,1598903997,2020,20,0,244.8333,244.8333,73.2291,-161.2002,1008.2,3.64,-999.0,yes,yes,no,300534061804420,unknown,unknown,unknown,North
2020-08-31T21:00:00Z,1598907600,2020,21,0,244.875,244.875,73.22802,-161.2377,1009.4,3.63,-999.0,yes,yes,no,300534061804420,unknown,unknown,unknown,North
2020-08-31T22:00:02Z,1598911203,2020,22,0,244.9167,244.9167,73.22778,-161.2762,1009.8,3.65,-999.0,yes,yes,no,300534061804420,unknown,unknown,unknown,North
2020-08-31T22:59:57Z,1598914797,2020,23,0,244.9583,244.9583,73.22608,-161.3118,1010.2,3.66,-999.0,yes,yes,no,300534061804420,unknown,unknown,unknown,North
2020-09-01T00:00:00Z,1598918400,2020,0,0,245.0,245.0,73.2223,-161.345,1010.3,3.71,-999.0,yes,yes,no,300534061804420,unknown,unknown,unknown,North
2020-09-01T01:00:02Z,1598922003,2020,1,0,245.0417,245.0417,73.2175,-161.3792,1010.4,3.75,-999.0,yes,yes,no,300534061804420,unknown,unknown,unknown,North
2020-09-01T01:59:57Z,1598925597,2020,2,0,245.0833,245.0833,73.21238,-161.4158,1010.8,3.75,-999.0,yes,yes,no,300534061804420,unknown,unknown,unknown,North
2020-09-01T03:00:00Z,1598929200,2020,3,0,245.125,245.125,73.20674,-161.4538,1011.1,3.74,-999.0,yes,yes,no,300534061804420,unknown,unknown,unknown,North
2020-09-01T04:00:02Z,1598932803,2020,4,0,245.1667,245.1667,73.20117,-161.4948,1011.4,3.69,-999.0,yes,yes,no,300534061804420,unknown,unknown,unknown,North
2020-09-01T04:59:57Z,1598936397,2020,5,0,245.2083,245.2083,73.19602,-161.538,1011.2,3.6,-999.0,yes,yes,no,300534061804420,unknown,unknown,unknown,North
2020-09-01T06:00:00Z,1598940000,2020,6,0,245.25,245.25,73.19071,-161.5768,1011.6,3.57,-999.0,yes,yes,no,300534061804420,unknown,unknown,unknown,North
2020-09-01T07:00:02Z,1598943603,2020,7,0,245.2917,245.2917,73.18641,-161.6147,1012.0,3.49,-999.0,yes,yes,no,300534061804420,unknown,unknown,unknown,North
2020-09-01T09:00:00Z,1598950800,2020,9,0,245.375,245.375,73.17775,-161.684,1012.4,3.23,-999.0,yes,yes,no,300534061804420,unknown,unknown,unknown,North
2020-09-01T10:00:02Z,1598954403,2020,10,0,245.4167,245.4167,73.17278,-161.7145,1012.7,3.1,-999.0,yes,yes,no,300534061804420,unknown,unknown,unknown,North
2020-09-01T10:59:57Z,1598957997,2020,11,0,245.4583,245.4583,73.16739,-161.7439,1012.7,1.89,-999.0,yes,yes,no,300534061804420,unknown,unknown,unknown,North
2020-09-01T13:59:57Z,1598968797,2020,14,0,245.5833,245.5833,73.15012,-161.8376,1013.1,1.85,-999.0,yes,yes,no,300534061804420,unknown,unknown,unknown,North
2020-09-01T15:00:00Z,1598972400,2020,15,0,245.625,245.625,73.14606,-161.8735,1013.4,1.74,-999.0,yes,yes,no,300534061804420,unknown,unknown,unknown,North
2020-09-01T16:00:02Z,1598976003,2020,16,0,245.6667,245.6667,73.14284,-161.9104,1013.6,2.1,-999.0,yes,yes,no,300534061804420,unknown,unknown,unknown,North
2020-09-01T18:00:00Z,1598983200,2020,18,0,245.75,245.75,73.13777,-161.9816,1014.2,1.89,-999.0,yes,yes,no,300534061804420,unknown,unknown,unknown,North
2020-09-01T19:00:02Z,1598986803,2020,19,0,245.7917,245.7917,73.13673,-162.0219,1014.5,2.14,-999.0,yes,yes,no,300534061804420,unknown,unknown,unknown,North
2020-09-01T19:59:57Z,1598990397,2020,20,0,245.8333,245.8333,73.13659,-162.0755,1014.9,2.63,-999.0,yes,yes,no,300534061804420,unknown,unknown,unknown,North
2020-09-01T21:00:00Z,1598994000,2020,21,0,245.875,245.875,73.13792,-162.1182,1015.2,2.12,-999.0,yes,yes,no,300534061804420,unknown,unknown,unknown,North
2020-09-01T22:00:02Z,1598997603,2020,22,0,245.9167,245.9167,73.13761,-162.1557,1015.3,1.9,-999.0,yes,yes,no,300534061804420,unknown,unknown,unknown,North
2020-09-01T22:59:57Z,1599001197,2020,23,0,245.9583,245.9583,73.13659,-162.1986,1015.5,2.05,-999.0,yes,yes,no,300534061804420,unknown,unknown,unknown,North
2020-09-02T00:00:00Z,1599004800,2020,0,0,246.0,246.0,73.13742,-162.2398,1015.6,1.21,-999.0,yes,yes,no,300534061804420,unknown,unknown,unknown,North
2020-09-02T04:59:57Z,1599022797,2020,5,0,246.2083,246.2083,73.14111,-162.4377,1033.5,1.59,-999.0,yes,yes,no,300534061804420,unknown,unknown,unknown,North
2020-09-02T06:00:00Z,1599026400,2020,6,0,246.25,246.25,73.14078,-162.4765,1016.2,1.56,-999.0,yes,yes,no,300534061804420,unknown,unknown,unknown,North
2020-09-02T07:00:02Z,1599030003,2020,7,0,246.2917,246.2917,73.14005,-162.5145,1020.1,1.53,-999.0,yes,yes,no,300534061804420,unknown,unknown,unknown,North
2020-09-02T07:59:57Z,1599033597,2020,8,0,246.3333,246.3333,73.13766,-162.5479,1016.4,1.46,-999.0,yes,yes,no,300534061804420,unknown,unknown,unknown,North
2020-09-02T09:00:00Z,1599037200,2020,9,0,246.375,246.375,73.13319,-162.5799,1016.5,1.47,-999.0,yes,yes,no,300534061804420,unknown,unknown,unknown,North
2020-09-02T10:00:02Z,1599040803,2020,10,0,246.4167,246.4167,73.12731,-162.6133,1016.7,1.48,-999.0,yes,yes,no,300534061804420,unknown,unknown,unknown,North
2020-09-02T10:59:57Z,1599044397,2020,11,0,246.4583,246.4583,73.12122,-162.6453,1016.6,1.45,-999.0,yes,yes,no,300534061804420,unknown,unknown,unknown,North
2020-09-02T12:00:00Z,1599048000,2020,12,0,246.5,246.5,73.11568,-162.6663,1016.5,1.81,-999.0,yes,yes,no,300534061804420,unknown,unknown,unknown,North